EW5954 Weather Reports


Display with metric or nautical units.
time (UTC)temp
F
wind
direction
speed
MPH
gust
MPH
rain 1hr
in
rain 24hr
in
rain mn
in
humidity
%
barometer
mb
20260831103253 66 318 0.0 1.0 0.00 0.12 0.12 99
20260831102748 66 302 0.0 2.0 0.00 0.12 0.12 99
20260831102242 66 331 0.0 0.0 0.00 0.12 0.12 99
20260831101738 66 302 0.0 2.0 0.00 0.12 0.12 99
20260831101233 66 357 0.0 0.0 0.00 0.12 0.12 99
20260831100729 66 335 0.0 2.0 0.00 0.12 0.12 99
20260831100219 66 326 1.0 2.0 0.00 0.12 0.12 99
20260831095718 66 299 0.0 1.0 0.00 0.12 0.12 99
20260831095213 66 326 1.0 2.0 0.00 0.12 0.12 99
20260831094708 66 258 2.0 3.0 0.05 0.12 0.12 99
20260831094204 66 325 0.0 2.0 0.05 0.12 0.12 99
20260831093700 66 299 1.0 2.0 0.00 0.11 0.11 99
20260831093155 66 341 1.0 1.0 0.00 0.11 0.11 99
20260831092651 66 301 1.0 2.0 0.00 0.11 0.11 99
20260831092147 66 255 2.0 2.0 0.00 0.11 0.11 99
20260831091646 66 302 1.0 2.0 0.00 0.11 0.11 99
20260831091142 66 176 3.0 3.0 0.00 0.11 0.11 99
20260831090637 66 338 0.0 0.0 0.00 0.11 0.11 99
20260831090133 66 344 0.0 2.0 0.00 0.11 0.11 99
20260831085628 66 282 1.0 2.0 0.00 0.11 0.11 99
20260831085123 66 340 0.0 1.0 0.00 0.11 0.11 99
20260831084619 66 337 0.0 1.0 0.00 0.11 0.11 99
20260831084115 66 294 1.0 2.0 0.00 0.11 0.11 99
20260831083611 66 319 1.0 2.0 0.00 0.11 0.11 99
20260831083106 66 353 0.0 1.0 0.00 0.11 0.11 99
20260831082605 65 327 1.0 3.0 0.00 0.11 0.11 99
20260831082100 66 310 1.0 2.0 0.00 0.11 0.11 99
20260831081556 66 281 2.0 3.0 0.00 0.11 0.11 99
20260831081051 66 205 1.0 2.0 0.00 0.11 0.11 99
20260831080546 66 343 0.0 0.0 0.00 0.11 0.11 99
20260831080041 66 177 1.0 3.0 0.00 0.11 0.11 99
20260831075536 66 325 0.0 1.0 0.00 0.11 0.11 99
20260831075032 66 340 0.0 2.0 0.00 0.11 0.11 99
20260831074532 66 323 0.0 1.0 0.00 0.11 0.11 99
20260831074031 66 351 0.0 2.0 0.00 0.11 0.11 99
20260831073526 66 314 0.0 1.0 0.00 0.11 0.11 99
20260831073025 66 336 1.0 2.0 0.00 0.11 0.11 99
20260831072521 66 298 3.0 3.0 0.07 0.11 0.11 99
20260831072017 66 267 2.0 3.0 0.07 0.11 0.11 99
20260831071515 66 302 1.0 3.0 0.05 0.10 0.10 99
20260831071011 66 302 4.0 5.0 0.12 0.10 0.10 99
20260831070509 66 273 2.0 3.0 0.07 0.09 0.09 99
20260831070005 66 290 1.0 2.0 0.00 0.08 0.08 99
20260831065503 66 315 0.0 3.0 0.05 0.08 0.08 99
20260831064958 66 293 2.0 2.0 0.05 0.08 0.08 99
20260831064453 66 298 1.0 2.0 0.00 0.07 0.07 99
20260831063948 66 290 1.0 3.0 0.00 0.07 0.07 99
20260831063444 66 320 0.0 2.0 0.00 0.07 0.07 99
20260831062943 66 282 0.0 1.0 0.00 0.07 0.07 99
20260831062439 66 338 0.0 2.0 0.07 0.07 0.07 99
20260831061938 66 327 0.0 0.0 0.07 0.07 0.07 99
20260831061437 66 336 0.0 2.0 0.00 0.06 0.06 99
20260831060933 66 274 1.0 1.0 0.00 0.06 0.06 99
20260831060433 66 327 0.0 2.0 0.05 0.06 0.06 99
20260831055933 66 340 0.0 1.0 0.12 0.06 0.06 99
20260831055428 66 335 0.0 0.0 0.12 0.05 0.05 99
20260831054923 66 342 0.0 1.0 0.05 0.04 0.04 99
20260831054418 66 340 0.0 0.0 0.00 0.03 0.03 99
20260831053918 66 274 1.0 1.0 0.07 0.03 0.03 99
20260831053415 66 327 0.0 2.0 0.14 0.03 0.03 99
20260831052911 66 333 0.0 1.0 0.12 0.02 0.02 99
20260831052410 66 329 1.0 2.0 0.05 0.01 0.01 99
20260831051908 66 335 0.0 0.0 0.00 0.00 0.00 99
20260831051407 66 277 0.0 1.0 0.00 0.00 0.00 99
20260831050902 66 317 0.0 2.0 0.00 0.00 0.00 99
20260831050356 66 331 0.0 0.0 0.00 0.00 0.00 99
20260831045855 66 342 0.0 0.0 0.00 0.00 0.00 99
20260831045349 66 338 0.0 2.0 0.00 0.00 0.00 99
20260831044844 66 337 0.0 0.0 0.00 0.00 0.00 99
20260831044339 66 336 0.0 0.0 0.00 0.00 0.00 99
20260831043835 66 331 0.0 0.0 0.00 0.00 0.00 99
20260831043335 66 43 0.0 0.0 0.00 0.00 0.00 99
20260831042830 66 340 0.0 2.0 0.00 0.00 0.00 98
20260831042329 66 253 1.0 3.0 0.00 0.00 0.00 98
20260831041825 66 305 0.0 0.0 0.00 0.00 0.00 98
20260831041324 66 247 2.0 3.0 0.00 0.00 0.00 98
20260831040819 66 322 2.0 2.0 0.00 0.00 0.00 98
20260831040318 66 332 0.0 1.0 0.00 0.00 0.00 98
20260831035817 66 258 2.0 2.0 0.00 0.10 0.10 98
20260831035315 66 253 1.0 1.0 0.00 0.10 0.10 98
20260831034810 66 312 1.0 3.0 0.00 0.10 0.10 98
20260831034305 66 336 1.0 2.0 0.00 0.10 0.10 98
20260831033800 66 273 1.0 1.0 0.00 0.10 0.10 98
20260831033255 66 294 1.0 2.0 0.00 0.10 0.10 98
20260831032750 66 265 1.0 2.0 0.00 0.10 0.10 97
20260831032245 66 318 0.0 2.0 0.00 0.10 0.10 97
20260831031740 66 258 1.0 2.0 0.00 0.10 0.10 97
20260831031240 66 324 1.0 1.0 0.00 0.10 0.10 97
20260831030734 66 292 1.0 2.0 0.00 0.10 0.10 97
20260831030233 66 254 1.0 2.0 0.00 0.10 0.10 97
20260831025732 66 324 0.0 2.0 0.00 0.10 0.10 97
20260831025227 66 334 0.0 1.0 0.00 0.10 0.10 97
20260831024723 66 306 1.0 2.0 0.00 0.10 0.10 97
20260831024221 66 246 2.0 2.0 0.00 0.10 0.10 97
20260831023720 66 344 0.0 2.0 0.00 0.10 0.10 97
20260831023219 66 344 0.0 1.0 0.00 0.10 0.10 97
20260831022714 66 290 0.0 0.0 0.00 0.10 0.10 97
20260831022209 66 317 0.0 1.0 0.00 0.10 0.10 97
20260831021708 66 332 0.0 0.0 0.00 0.10 0.10 97
20260831021158 66 329 0.0 2.0 0.00 0.10 0.10 97
20260831020654 66 321 0.0 2.0 0.00 0.10 0.10 97
20260831020154 66 285 0.0 2.0 0.00 0.10 0.10 97
20260831015649 66 344 0.0 1.0 0.00 0.10 0.10 97
20260831015149 66 354 0.0 1.0 0.00 0.10 0.10 97
20260831014644 66 323 0.0 2.0 0.00 0.10 0.10 97
20260831014139 66 297 1.0 1.0 0.00 0.10 0.10 96
20260831013636 66 323 2.0 3.0 0.00 0.10 0.10 96
20260831013135 66 327 0.0 2.0 0.00 0.10 0.10 96
20260831012630 66 347 0.0 2.0 0.00 0.10 0.10 96
20260831012125 66 28 0.0 1.0 0.00 0.10 0.10 96
20260831011624 66 349 0.0 2.0 0.00 0.10 0.10 96
20260831011120 66 346 0.0 2.0 0.00 0.10 0.10 96
20260831010616 66 320 0.0 0.0 0.00 0.10 0.10 96
20260831010111 66 6 0.0 1.0 0.00 0.10 0.10 95
20260831005611 66 17 0.0 0.0 0.00 0.10 0.10 95
20260831005106 66 305 0.0 1.0 0.00 0.10 0.10 95
20260831004602 66 42 0.0 1.0 0.00 0.10 0.10 95
20260831004057 66 248 0.0 1.0 0.00 0.10 0.10 95
20260831003554 66 331 0.0 2.0 0.00 0.10 0.10 95
20260831003049 66 347 0.0 1.0 0.00 0.10 0.10 95
20260831002548 66 318 0.0 1.0 0.00 0.10 0.10 95
20260831002043 66 340 0.0 2.0 0.00 0.10 0.10 95
20260831001538 66 1 0.0 3.0 0.00 0.10 0.10 95
20260831001035 66 335 0.0 1.0 0.00 0.10 0.10 95
20260831000531 67 328 1.0 1.0 0.00 0.10 0.10 95
20260831000030 67 343 0.0 0.0 0.00 0.10 0.10 95
20260830235524 67 349 0.0 1.0 0.00 0.10 0.10 95
20260830235019 67 351 0.0 0.0 0.00 0.10 0.10 94
20260830234514 67 310 0.0 2.0 0.00 0.10 0.10 94
20260830234009 67 355 0.0 0.0 0.00 0.10 0.10 94
20260830233505 67 13 0.0 1.0 0.00 0.10 0.10 94
20260830233001 67 3 1.0 1.0 0.00 0.10 0.10 94
20260830232456 67 353 0.0 1.0 0.00 0.10 0.10 94
20260830231952 67 349 0.0 2.0 0.00 0.10 0.10 94
20260830231448 67 358 0.0 1.0 0.00 0.10 0.10 94
20260830230947 67 17 0.0 0.0 0.00 0.10 0.10 94
20260830230442 67 358 0.0 2.0 0.00 0.10 0.10 94
20260830225941 67 10 0.0 1.0 0.00 0.10 0.10 94
20260830225438 67 296 0.0 0.0 0.00 0.10 0.10 94
20260830224937 67 355 0.0 0.0 0.00 0.10 0.10 94
20260830224435 67 357 0.0 1.0 0.00 0.10 0.10 94
20260830223932 67 358 0.0 2.0 0.00 0.10 0.10 94
20260830223429 67 309 0.0 1.0 0.00 0.10 0.10 94
20260830222928 67 359 0.0 2.0 0.00 0.10 0.10 94
20260830222423 67 31 1.0 3.0 0.00 0.10 0.10 94
20260830221919 67 346 0.0 2.0 0.00 0.10 0.10 94
20260830221415 67 305 0.0 5.0 0.00 0.10 0.10 94
20260830220911 67 18 0.0 2.0 0.00 0.10 0.10 94
20260830220410 67 313 1.0 1.0 0.00 0.10 0.10 94
20260830215908 67 345 0.0 1.0 0.00 0.10 0.10 94
20260830215403 67 5 0.0 1.0 0.00 0.10 0.10 94
20260830214857 67 356 0.0 1.0 0.00 0.10 0.10 94
20260830214352 67 309 0.0 0.0 0.00 0.10 0.10 94
20260830213847 67 359 0.0 0.0 0.00 0.10 0.10 94
20260830213342 67 18 0.0 1.0 0.00 0.10 0.10 93
20260830212838 67 305 1.0 2.0 0.07 0.10 0.10 93
20260830212334 68 33 1.0 1.0 0.07 0.10 0.10 93
20260830211833 67 347 0.0 5.0 0.00 0.09 0.09 92
20260830211327 67 292 1.0 5.0 0.00 0.09 0.09 91
20260830210823 68 326 0.0 1.0 0.00 0.09 0.09 91
20260830210322 68 58 1.0 2.0 0.00 0.09 0.09 90
20260830205820 68 279 1.0 2.0 0.00 0.09 0.09 89
20260830205319 68 29 1.0 2.0 0.00 0.09 0.09 88
20260830204815 68 321 1.0 2.0 0.00 0.09 0.09 88
20260830204314 68 349 0.0 1.0 0.00 0.09 0.09 87
20260830203810 68 356 0.0 2.0 0.00 0.09 0.09 87
20260830203306 68 7 3.0 5.0 0.00 0.09 0.09 86
20260830202805 68 1 0.0 2.0 0.00 0.09 0.09 86
20260830202300 69 299 0.0 5.0 0.00 0.09 0.09 85
20260830201755 69 14 0.0 2.0 0.00 0.09 0.09 85
20260830201249 69 72 1.0 2.0 0.00 0.09 0.09 84
20260830200745 69 333 2.0 3.0 0.00 0.09 0.09 84
20260830200243 69 358 0.0 2.0 0.00 0.09 0.09 84
20260830195739 69 28 1.0 5.0 0.00 0.09 0.09 83
20260830195237 70 355 0.0 3.0 0.00 0.09 0.09 83
20260830194736 70 11 2.0 3.0 0.00 0.09 0.09 82
20260830194231 70 45 3.0 5.0 0.00 0.09 0.09 81
20260830193726 70 354 0.0 2.0 0.00 0.09 0.09 81
20260830193220 70 40 0.0 2.0 0.00 0.09 0.09 81
20260830192716 71 46 1.0 5.0 0.00 0.09 0.09 81
20260830192211 71 28 1.0 5.0 0.00 0.09 0.09 80
20260830191707 71 24 0.0 3.0 0.00 0.09 0.09 80
20260830191201 71 67 0.0 5.0 0.00 0.09 0.09 80
20260830190656 71 165 1.0 2.0 0.00 0.09 0.09 81
20260830190151 71 197 1.0 2.0 0.00 0.09 0.09 81
20260830185649 70 37 1.0 6.0 0.00 0.09 0.09 81
20260830185146 70 354 1.0 2.0 0.00 0.09 0.09 81
20260830184644 70 50 0.0 2.0 0.00 0.09 0.09 81
20260830184139 70 31 1.0 6.0 0.00 0.09 0.09 81
20260830183639 71 303 1.0 2.0 0.00 0.09 0.09 80
20260830183135 70 16 0.0 2.0 0.00 0.09 0.09 80
20260830182636 70 342 0.0 2.0 0.00 0.09 0.09 81
20260830182132 70 270 0.0 1.0 0.00 0.09 0.09 80
20260830181628 70 341 0.0 3.0 0.00 0.09 0.09 80
20260830181127 70 359 0.0 1.0 0.00 0.09 0.09 81
20260830180626 70 154 1.0 2.0 0.00 0.09 0.09 81
20260830180121 70 263 1.0 1.0 0.00 0.09 0.09 82
20260830175619 70 254 2.0 5.0 0.00 0.09 0.09 82
20260830175115 69 330 2.0 3.0 0.00 0.09 0.09 83
20260830174610 69 42 2.0 3.0 0.00 0.09 0.09 84
20260830174106 69 276 0.0 2.0 0.00 0.09 0.09 85
20260830173601 69 139 2.0 3.0 0.00 0.09 0.09 85
20260830173055 68 358 0.0 1.0 0.00 0.09 0.09 86
20260830172553 68 26 2.0 3.0 0.00 0.09 0.09 88
20260830172048 68 9 1.0 3.0 0.00 0.09 0.09 89
20260830171544 68 312 1.0 2.0 0.00 0.09 0.09 90
20260830171039 68 340 0.0 1.0 0.00 0.09 0.09 91
20260830170538 68 352 0.0 0.0 0.00 0.09 0.09 91
20260830170037 68 20 0.0 1.0 0.00 0.09 0.09 91
20260830165533 68 180 2.0 2.0 0.00 0.09 0.09 91
20260830165029 68 354 0.0 0.0 0.00 0.09 0.09 90
20260830164524 68 328 0.0 0.0 0.00 0.09 0.09 90
20260830164020 68 300 1.0 2.0 0.00 0.09 0.09 91
20260830163517 67 343 1.0 2.0 0.00 0.09 0.09 91
20260830163016 68 354 0.0 1.0 0.00 0.09 0.09 91
20260830162512 68 280 1.0 2.0 0.00 0.09 0.09 91
20260830162007 68 4 0.0 2.0 0.00 0.09 0.09 92
20260830161501 68 47 1.0 1.0 0.00 0.09 0.09 92
20260830160956 68 4 0.0 0.0 0.00 0.09 0.09 92
20260830160453 68 2 0.0 0.0 0.00 0.09 0.09 92
20260830155947 68 359 0.0 2.0 0.00 0.09 0.09 92
20260830155443 68 265 1.0 2.0 0.00 0.09 0.09 93
20260830154938 67 260 0.0 1.0 0.00 0.09 0.09 93
20260830154434 67 3 0.0 2.0 0.00 0.09 0.09 94
20260830153930 67 347 0.0 1.0 0.00 0.09 0.09 94
20260830153426 67 348 0.0 0.0 0.00 0.09 0.09 95
20260830152925 67 308 0.0 1.0 0.00 0.09 0.09 94
20260830152420 67 326 0.0 1.0 0.00 0.09 0.09 95
20260830151914 67 5 0.0 1.0 0.00 0.09 0.09 95
20260830151413 67 336 0.0 0.0 0.00 0.09 0.09 96
20260830150908 67 353 0.0 0.0 0.00 0.09 0.09 96
20260830150408 66 282 0.0 1.0 0.00 0.09 0.09 96
20260830145902 66 349 0.0 0.0 0.00 0.09 0.09 96
20260830145357 66 291 0.0 1.0 0.00 0.09 0.09 96
20260830144847 66 302 0.0 0.0 0.00 0.09 0.09 96
20260830144343 66 355 0.0 0.0 0.00 0.09 0.09 96
20260830143838 66 14 0.0 0.0 0.00 0.09 0.09 96
20260830143338 66 323 0.0 0.0 0.00 0.09 0.09 96
20260830142832 66 344 0.0 0.0 0.00 0.09 0.09 96
20260830142327 66 337 0.0 1.0 0.00 0.09 0.09 96
20260830141822 66 343 0.0 1.0 0.00 0.09 0.09 96
20260830141317 66 353 0.0 0.0 0.00 0.09 0.09 96
20260830140812 65 349 0.0 0.0 0.00 0.09 0.09 96
20260830140307 65 328 0.0 0.0 0.00 0.09 0.09 96
20260830135801 66 339 0.0 0.0 0.00 0.09 0.09 96
20260830135257 65 345 0.0 0.0 0.00 0.09 0.09 96
20260830134753 65 301 1.0 1.0 0.00 0.09 0.09 96
20260830134247 65 335 0.0 1.0 0.00 0.09 0.09 96
20260830133743 65 341 0.0 1.0 0.05 0.09 0.09 96
20260830133238 65 343 0.0 0.0 0.12 0.08 0.08 95
20260830132734 65 7 0.0 1.0 0.19 0.08 0.08 95
20260830132229 65 8 0.0 0.0 0.19 0.06 0.06 94
20260830131728 65 356 0.0 0.0 0.17 0.05 0.05 94
20260830131223 66 4 0.0 0.0 0.05 0.03 0.03 93
20260830130724 66 8 1.0 1.0 0.07 0.02 0.02 93
20260830130223 66 353 0.0 1.0 0.12 0.02 0.02 92
20260830125718 66 355 0.0 1.0 0.05 0.01 0.01 91
20260830125213 66 354 0.0 1.0 0.00 0.00 0.00 90
20260830124710 67 26 2.0 2.0 0.00 0.00 0.00 89
20260830124207 67 3 0.0 1.0 0.00 0.00 0.00 89
20260830123703 67 355 0.0 0.0 0.00 0.00 0.00 88
20260830123159 67 13 0.0 1.0 0.00 0.00 0.00 87
20260830122656 67 348 0.0 1.0 0.00 0.00 0.00 87
20260830122151 67 22 1.0 2.0 0.00 0.00 0.00 87
20260830121647 67 359 1.0 2.0 0.00 0.00 0.00 87
20260830121146 67 19 1.0 3.0 0.00 0.00 0.00 87
20260830120641 67 349 0.0 2.0 0.00 0.00 0.00 87
20260830120137 67 357 0.0 0.0 0.00 0.00 0.00 87
20260830115633 67 358 0.0 1.0 0.00 0.00 0.00 87
20260830115128 67 358 0.0 0.0 0.00 0.00 0.00 87
20260830114625 67 1 0.0 0.0 0.00 0.00 0.00 88
20260830114125 67 355 0.0 0.0 0.00 0.00 0.00 88
20260830113620 67 352 0.0 0.0 0.00 0.00 0.00 88
20260830113115 67 351 0.0 0.0 0.00 0.00 0.00 88
20260830112612 67 349 0.0 0.0 0.00 0.00 0.00 88
20260830112108 66 349 0.0 0.0 0.00 0.00 0.00 88
20260830111603 66 351 0.0 0.0 0.00 0.00 0.00 88
20260830111059 66 351 0.0 0.0 0.00 0.00 0.00 88
20260830110558 67 351 0.0 0.0 0.00 0.00 0.00 88
20260830110054 67 351 0.0 0.0 0.00 0.00 0.00 88
20260830105548 67 351 0.0 0.0 0.00 0.00 0.00 87
20260830105044 67 357 0.0 0.0 0.00 0.00 0.00 87
20260830104536 67 356 0.0 1.0 0.00 0.00 0.00 87
20260830104032 67 357 0.0 0.0 0.00 0.00 0.00 87